Westminster, MD

4:31 AM EST on November 18, 2019 (GMT -0500)
Carroll County Regional-Poage

Weather History for KDMW - September, 2019

Change the Weather History Date:

Saturday, September 21, 2019

  Actual Average (WUND) Record (WUND)
Temperature  
Mean Temperature 73 °F -  
Max Temperature 89 °F - - (-1)
Min Temperature 57 °F - - (-1)
Cooling Degree Days 8    
Growing Degree Days 23 (Base 50)    
Moisture  
Dew Point 59 °F    
Average Humidity 63    
Maximum Humidity 88    
Minimum Humidity 38    
Precipitation  
Precipitation 0.00 in - - ()
Sea Level Pressure  
Sea Level Pressure 30.22 in    
Wind  
Wind Speed 1 mph (South)    
Max Wind Speed 7 mph    
Max Gust Speed -    
Visibility 10 miles    
Events      
Averages and records for this station are not official NWS values.
T = Trace of Precipitation, MM = Missing Value Source: NWS Daily Summary

Daily Weather History Graph

Daily Weather History Graph

Search for Another Location

Airport or City:

Astronomy

Sep. 21, 2019 Rise Set
Actual Time 6:54 AM EDT 7:07 PM EDT
Civil Twilight 6:27 AM EDT 7:33 PM EDT
Nautical Twilight 5:56 AM EDT 8:05 PM EDT
Astronomical Twilight 5:23 AM EDT 8:37 PM EDT
Moon 11:44 PM EDT (9/21) 1:57 PM EDT (9/21)
Length of Visible Light 13h 06m
Length of Day
12h 12m
Waning Gibbous, 55% of the Moon is Illuminated
Sep 21
Waning Gibbous
Sep 21
Last Quarter
Sep 28
New
Oct 5
First Quarter
Oct 13
Full

Hourly Weather History & Observations

Time (EDT) Temp. Heat Index Dew Point Humidity Pressure Visibility Wind Dir Wind Speed Gust Speed Precip Events Conditions
12:00 AM 62.6 °F - 53.6 °F 72% 30.24 in 10.0 mi Calm Calm - N/A   Clear
12:20 AM 62.6 °F - 53.6 °F 72% 30.24 in 10.0 mi Calm Calm - N/A   Clear
12:40 AM 60.8 °F - 53.6 °F 77% 30.24 in 10.0 mi Calm Calm - N/A   Clear
1:00 AM 60.8 °F - 53.6 °F 77% 30.25 in 10.0 mi Calm Calm - N/A   Clear
1:40 AM 60.8 °F - 53.6 °F 77% 30.25 in 10.0 mi Calm Calm - N/A   Clear
2:20 AM 59.0 °F - 53.6 °F 82% 30.25 in 10.0 mi Calm Calm - N/A   Clear
2:40 AM 57.2 °F - 53.6 °F 88% 30.25 in 10.0 mi Calm Calm - N/A   Clear
3:00 AM 57.2 °F - 53.6 °F 88% 30.24 in 10.0 mi Calm Calm - N/A   Clear
3:20 AM 57.2 °F - 53.6 °F 88% 30.24 in 10.0 mi Calm Calm - N/A   Clear
3:40 AM 57.2 °F - 53.6 °F 88% 30.24 in 10.0 mi Calm Calm - N/A   Clear
4:00 AM 57.2 °F - 53.6 °F 88% 30.24 in 10.0 mi Calm Calm - N/A   Clear
4:20 AM 57.2 °F - 53.6 °F 88% 30.23 in 10.0 mi Calm Calm - N/A   Clear
4:40 AM 57.2 °F - 53.6 °F 88% 30.23 in 10.0 mi Calm Calm - N/A   Clear
5:20 AM 57.2 °F - 53.6 °F 88% 30.23 in 10.0 mi Calm Calm - N/A   Clear
5:40 AM 57.2 °F - 53.6 °F 88% 30.24 in 10.0 mi Calm Calm - N/A   Clear
6:00 AM 57.2 °F - 53.6 °F 88% 30.24 in 10.0 mi Calm Calm - N/A   Clear
6:20 AM 57.2 °F - 53.6 °F 88% 30.25 in 10.0 mi Calm Calm - N/A   Clear
6:40 AM 57.2 °F - 53.6 °F 88% 30.25 in 10.0 mi Calm Calm - N/A   Clear
7:20 AM 57.2 °F - 53.6 °F 88% 30.26 in 10.0 mi Calm Calm - N/A   Clear
7:40 AM 57.2 °F - 53.6 °F 88% 30.25 in 10.0 mi Calm Calm - N/A   Clear
8:00 AM 60.8 °F - 55.4 °F 82% 30.26 in 10.0 mi Calm Calm - N/A   Clear
8:40 AM 64.4 °F - 55.4 °F 73% 30.26 in 10.0 mi Calm Calm - N/A   Clear
9:00 AM 66.2 °F - 57.2 °F 73% 30.27 in 10.0 mi Calm Calm - N/A   Clear
9:20 AM 68.0 °F - 59.0 °F 73% 30.27 in 10.0 mi Calm Calm - N/A   Clear
9:40 AM 69.8 °F - 59.0 °F 68% 30.27 in 10.0 mi Calm Calm - N/A   Clear
10:00 AM 71.6 °F - 60.8 °F 69% 30.26 in 10.0 mi Calm Calm - N/A   Clear
10:20 AM 73.4 °F - 60.8 °F 65% 30.26 in 10.0 mi Calm Calm - N/A   Clear
10:40 AM 75.2 °F - 60.8 °F 61% 30.26 in 10.0 mi Calm Calm - N/A   Clear
11:00 AM 75.2 °F - 60.8 °F 61% 30.26 in 10.0 mi Calm Calm - N/A   Clear
11:20 AM 78.8 °F - 60.8 °F 54% 30.25 in 10.0 mi Calm Calm - N/A   Clear
11:40 AM 78.8 °F - 60.8 °F 54% 30.25 in 10.0 mi Calm Calm - N/A   Clear
12:00 PM 82.4 °F 82.0 °F 57.2 °F 42% 30.24 in 10.0 mi SW 3.5 mph - N/A   Clear
12:20 PM 82.4 °F 82.5 °F 59.0 °F 45% 30.23 in 10.0 mi Calm Calm - N/A   Clear
12:40 PM 82.4 °F 82.0 °F 57.2 °F 42% 30.23 in 10.0 mi SW 5.8 mph - N/A   Clear
1:00 PM 84.2 °F 83.8 °F 59.0 °F 42% 30.23 in 10.0 mi SSW 6.9 mph - N/A   Clear
1:20 PM 84.2 °F 84.4 °F 60.8 °F 45% 30.22 in 10.0 mi West 6.9 mph - N/A   Clear
1:40 PM 84.2 °F 84.4 °F 60.8 °F 45% 30.21 in 10.0 mi Calm Calm - N/A   Clear
2:00 PM 84.2 °F 84.4 °F 60.8 °F 45% 30.21 in 10.0 mi NE 3.5 mph - N/A   Clear
2:20 PM 87.8 °F 87.6 °F 60.8 °F 40% 30.21 in 10.0 mi WSW 5.8 mph - N/A   Scattered Clouds
2:40 PM 87.8 °F 87.6 °F 60.8 °F 40% 30.20 in 10.0 mi Calm Calm - N/A   Mostly Cloudy
3:00 PM 87.8 °F 87.6 °F 60.8 °F 40% 30.19 in 10.0 mi SSW 4.6 mph - N/A   Clear
3:20 PM 89.6 °F 89.5 °F 60.8 °F 38% 30.19 in 10.0 mi NNW 3.5 mph - N/A   Scattered Clouds
3:40 PM 87.8 °F 87.6 °F 60.8 °F 40% 30.18 in 10.0 mi WSW 4.6 mph - N/A   Clear
4:00 PM 87.8 °F 87.6 °F 60.8 °F 40% 30.18 in 10.0 mi Calm Calm - N/A   Clear
4:20 PM 87.8 °F 87.6 °F 60.8 °F 40% 30.18 in 10.0 mi Calm Calm - N/A   Scattered Clouds
4:40 PM 87.8 °F 87.6 °F 60.8 °F 40% 30.17 in 10.0 mi Calm Calm - N/A   Mostly Cloudy
5:00 PM 89.6 °F 89.5 °F 60.8 °F 38% 30.17 in 10.0 mi SE 4.6 mph - N/A   Scattered Clouds
5:20 PM 89.6 °F 89.5 °F 60.8 °F 38% 30.17 in 10.0 mi Calm Calm - N/A   Clear
5:40 PM 87.8 °F 87.6 °F 60.8 °F 40% 30.17 in 10.0 mi Calm Calm - N/A   Clear
6:00 PM 87.8 °F 87.6 °F 60.8 °F 40% 30.17 in 10.0 mi Calm Calm - N/A   Clear
6:20 PM 87.8 °F 87.6 °F 60.8 °F 40% 30.17 in 10.0 mi Calm Calm - N/A   Clear
6:40 PM 86.0 °F 86.6 °F 62.6 °F 45% 30.18 in 10.0 mi Calm Calm - N/A   Clear
7:00 PM 82.4 °F 83.4 °F 62.6 °F 51% 30.18 in 10.0 mi Calm Calm - N/A   Clear
7:20 PM 82.4 °F 83.4 °F 62.6 °F 51% 30.19 in 10.0 mi SSE 4.6 mph - N/A   Clear
7:40 PM 80.6 °F 81.8 °F 62.6 °F 54% 30.19 in 10.0 mi SE 4.6 mph - N/A   Scattered Clouds
8:00 PM 78.8 °F - 62.6 °F 57% 30.19 in 10.0 mi SE 5.8 mph - N/A   Clear
8:20 PM 78.8 °F - 62.6 °F 57% 30.20 in 10.0 mi SE 4.6 mph - N/A   Clear
8:40 PM 77.0 °F - 62.6 °F 61% 30.20 in 10.0 mi SE 5.8 mph - N/A   Clear
9:00 PM 75.2 °F - 62.6 °F 65% 30.20 in 10.0 mi SE 4.6 mph - N/A   Clear
9:20 PM 75.2 °F - 62.6 °F 65% 30.20 in 10.0 mi SE 4.6 mph - N/A   Clear
9:40 PM 75.2 °F - 62.6 °F 65% 30.21 in 10.0 mi Calm Calm - N/A   Clear
10:00 PM 73.4 °F - 62.6 °F 69% 30.21 in 10.0 mi Calm Calm - N/A   Clear
10:20 PM 73.4 °F - 62.6 °F 69% 30.21 in 10.0 mi Calm Calm - N/A   Clear
10:40 PM 73.4 °F - 62.6 °F 69% 30.21 in 10.0 mi Calm Calm - N/A   Clear
11:00 PM 73.4 °F - 62.6 °F 69% 30.21 in 10.0 mi Calm Calm - N/A   Clear
11:20 PM 71.6 °F - 62.6 °F 73% 30.21 in 10.0 mi Calm Calm - N/A   Clear
11:40 PM 71.6 °F - 62.6 °F 73% 30.22 in 10.0 mi Calm Calm - N/A   Clear